This is the latest recevied weather packets stored in our database for station/object SQ7FJB-2. If no packets are shown the sender has not sent any weather packets the latest 10 day(s).
| Time | Temp. | Humidity | Pressure | Rain* | Wind** | Luminosity | Snow |
|---|---|---|---|---|---|---|---|
| 1778252294 | 11.11° C | 75% | 1017.3 hPa | 0 mm | - | - | - |
| 1778251695 | 11.11° C | 76% | 1017.3 hPa | 0 mm | - | - | - |
| 1778251083 | 11.11° C | 76% | 1017.3 hPa | 0 mm | - | - | - |
| 1778250482 | 11.67° C | 74% | 1017.3 hPa | 0 mm | - | - | - |
| 1778249882 | 11.67° C | 73% | 1017.3 hPa | 0 mm | - | - | - |
| 1778249270 | 11.67° C | 73% | 1017.3 hPa | 0 mm | - | - | - |
| 1778248657 | 11.67° C | 74% | 1017.3 hPa | 0 mm | - | - | - |
| 1778248045 | 11.67° C | 73% | 1017.3 hPa | 0 mm | - | - | - |
| 1778247445 | 11.67° C | 73% | 1017.4 hPa | 0 mm | - | - | - |
| 1778246845 | 11.11° C | 74% | 1017.3 hPa | 0 mm | - | - | - |
| 1778246232 | 11.11° C | 75% | 1017.3 hPa | 0 mm | - | - | - |
| 1778245632 | 11.11° C | 75% | 1017.4 hPa | 0 mm | - | - | - |
| 1778245032 | 11.11° C | 75% | 1017.5 hPa | 0 mm | - | - | - |
| 1778244420 | 11.11° C | 74% | 1017.5 hPa | 0 mm | - | - | - |
| 1778243819 | 11.11° C | 75% | 1017.5 hPa | 0 mm | - | - | - |
| 1778243219 | 10.56° C | 76% | 1017.4 hPa | 0 mm | - | - | - |
| 1778242608 | 11.11° C | 77% | 1017.4 hPa | 0 mm | - | - | - |
| 1778241995 | 11.11° C | 73% | 1017.3 hPa | 0 mm | - | - | - |
| 1778241395 | 12.22° C | 72% | 1017.3 hPa | 0 mm | - | - | - |
| 1778240782 | 11.67° C | 71% | 1017.2 hPa | 0 mm | - | - | - |
| 1778240170 | 11.67° C | 75% | 1017.2 hPa | 0 mm | - | - | - |
| 1778239557 | 11.11° C | 75% | 1017.2 hPa | 0 mm | - | - | - |
| 1778238945 | 11.11° C | 74% | 1017.1 hPa | 0 mm | - | - | - |
| 1778238345 | 10.56° C | 77% | 1017.2 hPa | 0 mm | - | - | - |
| 1778237744 | 11.11° C | 78% | 1017 hPa | 0 mm | - | - | - |
* Rain latest hour (hover to see other rain measurements)
** Current wind speed in m/s (hover to see current wind gust speed)